EDT,Max TemperatureF,Mean TemperatureF,Min TemperatureF,Max Dew PointF,MeanDew PointF,Min DewpointF,Max Humidity, Mean Humidity, Min Humidity, Max Sea Level PressureIn, Mean Sea Level PressureIn, Min Sea Level PressureIn, Max VisibilityMiles, Mean VisibilityMiles, Min VisibilityMiles, Max Wind SpeedMPH, Mean Wind SpeedMPH, Max Gust SpeedMPH,PrecipitationIn, CloudCover, Events, WindDirDegrees
2013-10-1,74,64,55,62,56,50,97,77,56,29.87,29.79,29.72,10,10,4,21,10,32,0.00,1,,209
2013-10-2,65,59,53,61,49,45,99,69,54,30.07,29.99,29.82,10,9,2,16,9,21,0.00,1,,255
2013-10-3,59,54,49,56,48,40,97,78,54,30.07,30.01,29.95,10,10,1,18,8,30,0.62,6,Rain,100
2013-10-4,58,56,55,55,53,51,95,87,80,30.14,30.05,29.97,10,10,7,15,10,21,0.01,8,Rain,76
2013-10-5,56,52,49,51,49,45,99,89,74,30.14,30.06,29.93,10,8,1,21,13,36,2.51,8,Rain,83
2013-10-6,59,54,50,60,55,50,100,98,92,29.92,29.70,29.58,10,6,0,21,14,36,0.51,7,Fog-Rain,136
2013-10-7,55,50,46,53,46,41,99,83,64,30.03,29.72,29.53,10,10,5,21,10,26,0.07,6,Rain,292
2013-10-8,64,54,43,51,45,42,97,72,47,30.20,30.14,30.04,10,10,10,13,6,18,0.00,0,,176
2013-10-9,68,61,54,53,50,47,88,69,52,30.22,30.19,30.15,10,10,10,12,9,20,0.00,0,,206
2013-10-10,64,56,49,55,50,45,99,81,53,30.21,30.18,30.13,10,10,5,15,7,20,0.00,0,,139
2013-10-11,58,53,48,56,51,43,100,93,64,30.17,30.13,30.07,10,6,0,14,6,23,0.00,3,Fog,105
2013-10-12,68,60,51,59,51,44,94,74,48,30.07,30.01,29.93,10,10,7,14,9,21,0.07,2,Rain,148
2013-10-13,61,54,46,58,45,38,88,73,67,30.39,30.22,30.00,10,10,7,17,11,26,0.00,4,,289
2013-10-14,57,48,39,42,40,34,97,75,43,30.45,30.38,30.30,10,10,10,8,5,,0.00,0,,305
2013-10-15,56,48,41,55,47,40,98,86,63,30.29,30.02,29.71,10,9,4,17,7,24,0.33,4,Rain,125
2013-10-16,56,52,47,56,50,43,99,93,82,29.82,29.69,29.63,10,9,4,17,9,25,0.07,8,Rain,247
2013-10-17,50,46,43,43,39,37,83,73,60,29.85,29.79,29.73,10,10,10,13,7,20,0.00,6,,310
2013-10-18,52,45,38,44,41,36,93,80,70,29.80,29.75,29.72,10,10,10,13,4,16,0.00,6,,295
2013-10-19,50,44,37,41,38,31,99,81,49,29.79,29.71,29.65,10,10,3,18,6,24,0.06,6,Rain,302
2013-10-20,50,44,37,42,38,35,98,79,57,29.80,29.75,29.70,10,10,7,13,7,21,0.08,4,Rain,200
2013-10-21,48,44,39,46,41,34,97,86,71,29.70,29.64,29.59,10,9,4,24,12,31,0.18,8,Rain,244
2013-10-22,45,40,34,34,33,30,90,77,57,29.84,29.77,29.63,10,10,7,23,14,33,0.00,4,Rain,304
2013-10-23,42,38,33,33,31,25,92,79,65,29.84,29.81,29.78,10,10,5,20,11,28,0.00,5,Snow,297
2013-10-24,45,40,36,36,34,32,94,83,64,30.09,29.93,29.80,10,10,10,15,11,24,0.00,7,Rain,304
2013-10-25,44,39,34,37,33,29,94,77,57,30.19,30.06,29.73,10,10,4,22,10,33,0.06,6,Rain,265
2013-10-26,48,42,35,42,36,32,95,79,64,29.91,29.68,29.50,10,9,3,29,17,43,0.17,6,Rain,283
2013-10-27,47,40,34,38,34,32,92,78,65,29.97,29.89,29.82,10,10,7,20,8,28,0.01,7,Rain,274
2013-10-28,41,35,29,35,25,21,88,70,53,30.46,30.33,29.98,10,10,10,17,11,28,0.00,2,,12
2013-10-29,37,31,25,33,26,23,93,77,57,30.47,30.39,30.22,10,10,7,9,4,,0.00,4,Snow,184
2013-10-30,52,44,36,44,39,33,94,85,70,30.22,30.09,29.86,10,10,10,13,6,17,0.00,7,,144
2013-10-31,57,52,48,57,51,43,100,97,72,29.84,29.45,29.01,10,3,0,10,7,16,1.29,8,Rain,142